Regional Weather Roundup
Issued by NWS

Home | Current Version | Previous Version | Text Only | Print | Product List | Glossary Off
Versions: 1 2 3 4 5 6 7 8 9 10 11 12 13 14 15 16 17 18 19 20 21 22 23 24 25 26 27 28 29 30 31 32 33 34 35 36 37 38 39 40 41 42 43 44 45 46 47 48 49 50

000
ASUS43 KLOT 301608
RWRIL

ILLINOIS REGIONAL WEATHER ROUNDUP
NATIONAL WEATHER SERVICE CHICAGO/ROMEOVILLE IL
1100 AM CDT SUN APR 30 2017

NOTE: "FAIR" INDICATES FEW OR NO CLOUDS BELOW 12,000 FEET WITH NO
SIGNIFICANT WEATHER AND/OR OBSTRUCTIONS TO VISIBILITY.

* THESE STATIONS ARE NOT UNDER NWS QUALITY CONTROL. THEY ALSO MAY NOT
  REPORT WEATHER SUCH AS PRECIPITATION OR FOG.

ILZ001-002-007-009-015-016-024-301700-
NORTHWEST ILLINOIS

CITY           SKY/WX    TMP DP  RH WIND       PRES   REMARKS
MOLINE         LGT RAIN  46  43  89 NE16      29.82F FOG
STERLING*      LGT RAIN  44  43  96 NE12      29.86S FOG
SAVANNA*       CLOUDY    44  42  95 NE8       29.88S
$$

ILZ003-004-008-010-011-017-018-301700-
NORTH CENTRAL ILLINOIS

CITY           SKY/WX    TMP DP  RH WIND       PRES   REMARKS
ROCKFORD       LGT RAIN  44  41  89 NE12      29.90R FOG
FREEPORT*      CLOUDY    42  41  97 NE10      29.91R FOG
ROCHELLE*      DRIZZLE   43  42  98 N12       29.87R
DE KALB*       LGT RAIN  44  43  98 NE13      29.86R
PERU*          DRIZZLE   44  43  96 N13       29.84R
$$

ILZ005-006-012>014-019>023-301700-
NORTHEAST ILLINOIS

CITY           SKY/WX    TMP DP  RH WIND       PRES   REMARKS
CHICAGO-OHARE  CLOUDY    45  43  93 N10       29.82R FOG
CHICAGO-MIDWAY CLOUDY    47  46  97 N9        29.81R FOG
AURORA         RAIN      46  44  93 NE12      29.84R VSB 1
LANSING*       LGT RAIN  49  49 100 CALM      29.79R
JOLIET*        CLOUDY    48  47  98 N7        29.82R FOG
WAUKEGAN       FOG       43  43 100 NE10      29.85R VSB 3/4
DUPAGE AIRPORT RAIN      45  45 100 N10       29.83R FOG
KANKAKEE*      CLOUDY    54  53  97 CALM      29.78S
WHEELING       CLOUDY    43  43 100 NE9       29.84R FOG
MORRIS*        RAIN      46  45  95 CALM      29.81R
ROMEOVILLE*    CLOUDY    46  46 100 NE9       29.81R FOG
NORTHERLY ISL    N/A     45  43  93 N12         N/A
$$

LMZ740>746-301700-
SOUTHERN LAKE MICHIGAN

STATION/POSITION SKY/WX   TEMP    WIND        PRES    VSBY  WAVE
                          AIR SEA DIR/SP/G                  HT/PER
                          (F)     (DEG/KT/KT) (MB)    (MI)  (FT/S)
SOUTHERN BUOY              42 40   60/ 19/ 23 1010.0          4/ 5
HARRISON CRIB              45     360/  8/  8   N/A
BURNHAM HARBOR             45     340/  9/ 12   N/A
CALUMET HARBOR             47     340/  6/  7 1008.6R
BURNS HARBOR               51     110/ 12/ 16 1007.8F
MICHIGAN CITY              49      90/  9/ 12   N/A
MICHIGAN CITY 6N           49 48                N/A           3/ 6
ST. JOSEPH                 48 46  130/ 14/ 19 1009.1          2/ 3
$$

ILZ025>027-034>036-040-047-049-050-058-095>099-301700-
WEST-CENTRAL ILLINOIS

CITY           SKY/WX    TMP DP  RH WIND       PRES   REMARKS
QUINCY         LGT RAIN  49  49 100 NE18      29.67F FOG
GALESBURG*     LGT RAIN  45  45  99 NE16      29.79F
MACOMB*        CLOUDY    47  47 100 NE17      29.79F FOG
JACKSONVILLE*  LGT RAIN  52  52 100 NW3       29.76F
PITTSFIELD*    RAIN      50  50 100 E10       29.72F
$$

ILZ028>032-037-038-041>044-048-051>054-059>061-301700-
CENTRAL ILLINOIS

CITY           SKY/WX    TMP DP  RH WIND       PRES   REMARKS
PONTIAC        RAIN      55  54  98 N5        29.81R
BLOOMINGTON    CLOUDY    59  58  96 VRB6      29.78R
DECATUR        CLOUDY    61  61 100 S17       29.73S
PEORIA         CLOUDY    49  48  97 N8        29.80R FOG
LACON*         DRIZZLE   46  46 100 N9        29.82R
LINCOLN*       CLOUDY    61  60  98 NW7       29.77R
SPRINGFIELD    LGT RAIN  59  57  93 NW8       29.75R
TAYLORVILLE    DRIZZLE   61  60  96 S22G33    29.74R
$$

ILZ033-039-045-046-055>057-062-063-301700-
EAST-CENTRAL ILLINOIS

CITY           SKY/WX    TMP DP  RH WIND       PRES   REMARKS
CHAMPAIGN      CLOUDY    63  59  87 SW8       29.75R
RANTOUL*       CLOUDY    62  61  96 CALM      29.75R
MATTOON        RAIN      63  62  97 S16G23    29.78R FOG
PARIS*         LGT RAIN N/A N/A N/A S21       29.80R
$$

ILZ079-100>102-301700-
SOUTHWEST ILLINOIS

CITY           SKY/WX    TMP DP  RH WIND       PRES   REMARKS
ALTON          RAIN      61  59  94 SE10      29.76R
BELLEVILLE     LGT RAIN  63  63 100 SE7       29.77R FOG
CAHOKIA*       RAIN      63  61  93 SE8       29.76S FOG
SPARTA*        LGT RAIN  63  63 100 SE14G20   29.78S
$$

ILZ064>066-069>071-074>076-080>082-084>086-088>090-092>094-301700-
SOUTH-CENTRAL ILLINOIS

CITY           SKY/WX    TMP DP  RH WIND       PRES   REMARKS
CARBONDALE     LGT RAIN  64  64 100 SE12      29.78F
CAIRO*         CLOUDY    64  64 100 E10       29.79F
EFFINGHAM*     LGT RAIN  64  64 100 SE7       29.83R
MARION         HVY RAIN  64  64 100 SE9G16    29.82F
MT. VERNON     LGT RAIN  64  63  96 SE12      29.82F
CENTRALIA*     LGT RAIN  64  64 100 SE12      29.80S
SALEM*         RAIN      64  62  93 SE8       29.81F
METROPOLIS*    TSTM      64  64  97 NE3       29.83R
$$

ILZ067-068-072-073-078-083-087-091-301700-
SOUTHEAST ILLINOIS

CITY           SKY/WX    TMP DP  RH WIND       PRES   REMARKS
LAWRENCEVILLE  HVY RAIN  65  65 100 S9        29.87R VSB 3/4
FLORA*         RAIN      65  64  96 S12       29.84S
FAIRFIELD*     HVY RAIN  64  64 100 SE5       29.84S
HARRISBURG*    TSTM      64  64 100 E8        29.84S
ROBINSON*      HVY RAIN  64  64  97 S18       29.88R
CARMI*         RAIN      64  64 100 SE7       29.85F
$$

ABBREVIATIONS USED IN REMARKS
   TC - TEMPERATURE IN CELSIUS
  WCI - WIND CHILL INDEX
   HX - HEAT INDEX
  VSB - VISIBILITY
$$





USA.gov is the U.S. government's official web portal to all federal, state and local government web resources and services.